[[{"header":{"parameterUnit":"m.s-1","parameterCategory":1,"la1":30.2991,"la2":30.254,"lo1":-89.0895,"lo2":-89.0444,"dy":0.0017,"dx":0.0017,"nx":28,"ny":28,"refTime":"2023-06-26T21:00:00:Z","depth":0,"parameterNumber":2,"parameterNumberName":"U-component_of_WINDS"},"data":[0,0,0,0,0,0,0,0,0,0,0,0,0,0,0,0,0,0,0,0,0,0,0,0,0,0,0,0,0,0,0,0,0,0,0,0,0,0,0,0,0,0,0,0,0,0,0,0,0,0,0,0,0,0,0,0,0,0,2.7808,2.7809,0,2.7901,2.7903,2.7904,2.7877,2.7875,2.7873,2.7871,2.7966,2.797,2.7974,0,0,0,0,0,0,0,0,0,0,0,0,0,2.7608,2.7612,2.7808,2.7809,2.781,2.7901,2.7903,2.7904,2.7877,2.7875,2.7873,2.7871,2.7965,2.797,2.7975,0,0,0,0,0,0,0,0,0,0,0,0,0,2.7698,2.7613,2.7808,2.7808,2.7809,2.7901,2.7903,2.7904,2.7878,2.7875,2.7872,2.7869,2.7963,2.7969,2.7976,2.8073,0,0,2.7995,2.7998,0,0,0,0,0,0,0,0,2.7692,2.7705,2.7807,2.7808,2.7809,2.7875,2.7867,2.7961,2.7879,2.7852,2.7871,2.7868,2.7938,2.7946,2.797,2.8077,2.8081,2.7996,2.8,2.8003,2.8004,0,0,0,0,0,0,0,2.7686,2.7701,2.7845,2.7808,2.781,2.7804,2.7814,2.7884,2.791,2.7854,2.7852,2.7864,2.7938,2.7964,2.7972,2.8082,2.7996,2.8001,2.8005,2.8008,2.8277,2.828,0,0,0,0,0,0,2.7679,2.7696,2.7842,2.7848,2.7743,2.781,2.7821,2.7857,2.7909,2.7914,2.7866,2.7862,2.7954,2.7964,2.7975,2.8094,2.8002,2.8008,2.8012,2.8274,2.8278,2.8281,0,0,0,0,0,0,2.7675,2.7692,2.7838,2.7771,2.7789,2.7816,2.7857,2.786,2.7886,2.7918,2.7922,2.7888,2.7952,2.7966,2.8049,2.8097,2.8011,2.8017,2.827,2.8275,2.828,2.8331,0,0,0,0,0,0,2.7669,2.7691,2.7728,2.7772,2.7793,2.791,2.786,2.7864,2.7897,2.7893,2.7939,2.7944,2.7951,2.804,2.8056,2.8104,2.8022,2.8266,2.8272,2.8278,2.8325,2.8337,2.8348,0,0,0,0,0,2.7662,2.7738,2.773,2.7747,2.7839,2.7913,2.7925,2.7931,2.7901,2.7938,2.796,2.7943,2.8089,2.8049,2.8066,2.8117,2.8263,2.827,2.8278,2.832,2.8335,2.8347,0,0,0,0,0,0,2.7696,2.7743,2.7735,2.7827,2.7867,2.7908,2.7956,2.7946,2.7995,2.7989,2.7995,2.8006,2.8091,2.8113,2.8066,2.8216,2.8172,2.8183,2.8198,2.8212,2.8223,2.8216,2.8028,0,0,0,0,0,2.7715,2.7771,2.7809,2.7886,2.7907,2.7928,2.796,2.7962,2.8003,2.802,2.8047,2.8087,2.8143,2.8179,2.8231,2.8329,2.834,2.8373,2.8384,2.8393,2.8403,2.8458,2.8474,2.8306,2.8306,2.8305,0,0,2.7753,2.7786,2.782,2.7894,2.7925,2.7983,2.7942,2.8005,2.8049,2.8029,2.811,2.8132,2.8177,2.8269,2.831,2.8289,2.8452,2.8402,2.8409,2.8414,2.8467,2.8483,2.8498,2.8311,2.831,2.8309,0,0,2.7852,2.7882,2.7951,2.7984,2.8032,2.8046,2.8063,2.8107,2.8121,2.8203,2.819,2.8243,2.8337,2.8371,2.84,2.8517,2.8504,2.8534,2.8592,2.8646,2.8659,2.8671,2.8714,2.8729,2.8544,2.8544,2.8544,0,2.7894,2.7981,2.7988,2.8053,2.8087,2.8073,2.8144,2.8175,2.8238,2.8261,2.8237,2.8358,2.8387,2.8488,2.8517,2.8541,2.8561,2.8528,2.8657,2.8669,2.868,2.8721,2.8737,2.8547,2.8547,2.8546,2.8546,0,2.803,2.8091,2.8142,2.8204,2.8243,2.8311,2.8329,2.8368,2.8368,2.8385,2.8469,2.8505,2.8566,2.859,2.8589,2.8691,2.8677,2.8655,2.8611,2.8699,2.8738,2.8753,2.8552,2.8551,2.855,2.8549,0,0,2.8151,2.8219,2.8237,2.8267,2.832,2.8368,2.8436,2.8496,2.853,2.8575,2.8633,2.8715,2.8696,2.873,2.8733,2.8781,2.8873,2.8753,2.8754,2.8775,2.899,2.9006,2.9024,2.8866,2.8868,2.8871,2.8986,0,2.8256,2.8376,2.8386,2.8494,2.8552,2.8542,2.8601,2.8641,2.866,2.8712,2.8733,2.8792,2.8761,2.8782,2.8829,2.8852,2.8916,2.8844,2.892,2.8923,2.8909,2.9044,2.9061,2.9168,2.9001,2.9004,2.9006,0,2.8394,2.8444,2.8558,2.8607,2.8631,2.8684,2.8742,2.8792,2.8838,2.8848,2.8888,2.8886,2.8957,2.8912,2.9011,2.8961,2.8993,2.901,2.9014,2.9021,2.8969,2.9055,2.9202,2.9219,2.9029,2.9028,2.9026,0,2.8472,2.8568,2.865,2.8675,2.8733,2.8771,2.8797,2.884,2.8877,2.8928,2.8952,2.901,2.9042,2.9087,2.9102,2.9067,2.9201,2.9156,2.9212,2.9212,2.924,2.9238,2.9395,2.9261,2.9261,2.926,2.926,0,2.8588,2.8658,2.8686,2.8736,2.8816,2.8827,2.8906,2.893,2.8969,2.9024,2.9019,2.9071,2.9087,2.9142,2.9154,2.9235,2.925,2.9261,2.9263,2.9261,2.926,2.9282,2.9275,2.9265,2.9264,2.9263,2.9262,0,2.8688,2.8709,2.8798,2.8847,2.8861,2.8917,2.8959,2.9008,2.9027,2.9098,2.9115,2.9145,2.921,2.9229,2.9307,2.9315,2.9411,2.9406,2.9396,2.9396,2.9452,2.9446,2.9628,2.9653,2.9502,2.9504,2.9505,0,2.876,2.8815,2.887,2.8908,2.8936,2.8995,2.9033,2.9048,2.9088,2.9146,2.9189,2.9253,2.9306,2.9411,2.944,2.95,2.9497,2.9557,2.9506,2.9503,2.9499,2.9495,2.9502,2.9566,2.9567,2.9569,2.957,0,2.8887,2.8896,2.8951,2.9012,2.9058,2.9105,2.9151,2.9182,2.9204,2.9249,2.9316,2.9357,2.9438,2.9503,2.9565,2.9592,2.9585,2.9586,2.9602,2.9601,2.9593,2.9599,2.9422,2.9581,2.958,2.9579,2.9579,2.9578,2.8976,2.9025,2.9073,2.9135,2.9172,2.9216,2.9265,2.9292,2.9348,2.9416,2.9421,2.9494,2.9542,2.9624,2.9655,2.9713,2.9696,2.9719,2.9725,2.9731,2.9736,2.9584,2.9724,2.9724,2.9724,2.9724,2.9723,0,2.9104,2.9134,2.9192,2.9258,2.9308,2.9298,2.9349,2.9392,2.9456,2.9501,2.9554,2.9633,2.9696,2.9732,2.9796,2.9835,2.9834,2.9852,2.9849,2.9856,2.9747,2.9727,2.9852,2.9852,2.9852,2.9852,2.9852,2.9852,2.9176,2.9258,2.9273,2.9375,2.9406,2.9478,2.9508,2.9549,2.9586,2.9674,2.9727,2.9751,2.9792,2.986,2.9918,2.9927,2.9951,2.9971,2.9978,2.9876,2.9863,2.985,2.9831,2.9976,2.9976,3.0082,3.0083,3.0083]},{"header":{"parameterUnit":"m.s-1","parameterCategory":1,"la1":30.2991,"la2":30.254,"lo1":-89.0895,"lo2":-89.0444,"dy":0.0017,"dx":0.0017,"nx":28,"ny":28,"refTime":"2023-06-26T21:00:00:Z","depth":0,"parameterNumber":3,"parameterNumberName":"V-component_of_WINDS"},"data":[0,0,0,0,0,0,0,0,0,0,0,0,0,0,0,0,0,0,0,0,0,0,0,0,0,0,0,0,0,0,0,0,0,0,0,0,0,0,0,0,0,0,0,0,0,0,0,0,0,0,0,0,0,0,0,0,0,0,0.4951,0.4952,0,0.5117,0.5119,0.5121,0.5141,0.5139,0.5137,0.5136,0.5317,0.5323,0.5329,0,0,0,0,0,0,0,0,0,0,0,0,0,0.466,0.4666,0.495,0.4952,0.4955,0.5116,0.5119,0.5121,0.5141,0.5139,0.5137,0.5135,0.5315,0.5322,0.533,0,0,0,0,0,0,0,0,0,0,0,0,0,0.4803,0.4667,0.495,0.4984,0.4988,0.5116,0.5119,0.5122,0.5141,0.5139,0.5137,0.5134,0.5312,0.5321,0.5331,0.544,0,0,0.536,0.5364,0,0,0,0,0,0,0,0,0.4795,0.4813,0.4977,0.4982,0.4987,0.5105,0.5083,0.5229,0.5142,0.5084,0.5136,0.5133,0.5249,0.5264,0.5301,0.5448,0.5456,0.5361,0.5367,0.5371,0.5373,0,0,0,0,0,0,0,0.4785,0.4806,0.5017,0.4979,0.4986,0.4994,0.5011,0.5111,0.5179,0.5089,0.509,0.5109,0.5252,0.5291,0.5305,0.5458,0.5361,0.5369,0.5375,0.5379,0.5706,0.5709,0,0,0,0,0,0,0.4767,0.4798,0.5011,0.5022,0.4882,0.5001,0.5021,0.507,0.5178,0.5191,0.5111,0.511,0.5276,0.5294,0.5312,0.5448,0.5371,0.538,0.5385,0.5703,0.5706,0.571,0,0,0,0,0,0,0.4761,0.4786,0.5005,0.491,0.4939,0.5009,0.5064,0.5075,0.5114,0.5194,0.5208,0.5139,0.5275,0.5298,0.5407,0.5454,0.5384,0.5393,0.5699,0.5704,0.5708,0.5719,0,0,0,0,0,0,0.4752,0.4784,0.4823,0.4911,0.4944,0.5095,0.5067,0.508,0.513,0.5129,0.5224,0.5237,0.5275,0.5393,0.5417,0.5466,0.54,0.5696,0.5701,0.5707,0.5715,0.5724,0.5731,0,0,0,0,0,0.4742,0.4822,0.4825,0.4851,0.4994,0.5097,0.5116,0.5155,0.5133,0.5175,0.5227,0.5234,0.5444,0.5404,0.5431,0.5484,0.5693,0.57,0.5706,0.5712,0.5722,0.5731,0,0,0,0,0,0,0.4741,0.4834,0.4839,0.4948,0.5014,0.51,0.5155,0.5164,0.524,0.5237,0.5285,0.5306,0.5414,0.546,0.5413,0.5596,0.5567,0.5579,0.5562,0.5572,0.558,0.5568,0.5408,0,0,0,0,0,0.4753,0.4826,0.4904,0.4993,0.5026,0.5084,0.5131,0.5154,0.5226,0.5255,0.5315,0.5387,0.547,0.5523,0.5603,0.5721,0.5744,0.5771,0.5779,0.5785,0.5796,0.5864,0.5878,0.5732,0.5731,0.5731,0,0,0.478,0.4839,0.4883,0.4995,0.5049,0.5126,0.5108,0.5191,0.525,0.5269,0.5375,0.5421,0.5506,0.562,0.5673,0.5661,0.5841,0.5793,0.5797,0.5806,0.5872,0.5886,0.5898,0.5736,0.5735,0.5735,0,0,0.4869,0.4919,0.5,0.5054,0.5134,0.5173,0.5192,0.5277,0.5307,0.5413,0.543,0.5503,0.5643,0.5703,0.5751,0.5862,0.5873,0.5887,0.5929,0.5995,0.6007,0.6017,0.6059,0.6073,0.5897,0.5897,0.5897,0,0.4893,0.5007,0.5041,0.5123,0.5173,0.519,0.5275,0.5326,0.5431,0.5466,0.545,0.5627,0.5685,0.5814,0.5841,0.5879,0.5905,0.5878,0.6001,0.6012,0.6023,0.6064,0.6079,0.5899,0.5899,0.5898,0.5898,0,0.5034,0.5113,0.5169,0.5266,0.5322,0.5405,0.5455,0.5508,0.5527,0.5568,0.5678,0.5747,0.5842,0.5874,0.5895,0.6007,0.5998,0.5991,0.5964,0.6037,0.6077,0.6092,0.5901,0.59,0.59,0.5899,0,0,0.5129,0.5242,0.5262,0.5307,0.5397,0.5461,0.5545,0.5635,0.5681,0.5752,0.5827,0.5945,0.5939,0.5994,0.6021,0.6078,0.6165,0.6065,0.6068,0.6084,0.6297,0.6303,0.632,0.6171,0.6174,0.6177,0.629,0,0.523,0.5377,0.5411,0.5539,0.5615,0.5632,0.5706,0.5771,0.5812,0.5884,0.593,0.6014,0.5998,0.6032,0.6089,0.6142,0.6209,0.6134,0.6245,0.6249,0.6226,0.634,0.6347,0.6451,0.6306,0.6308,0.631,0,0.5367,0.5438,0.5573,0.5654,0.5687,0.5752,0.5838,0.5906,0.5981,0.6007,0.6068,0.6089,0.6181,0.6147,0.6277,0.6225,0.6273,0.6306,0.6311,0.6325,0.6286,0.6361,0.6485,0.6502,0.6334,0.6332,0.6331,0,0.5426,0.5555,0.5653,0.5691,0.5787,0.5833,0.5876,0.5948,0.6,0.6076,0.6111,0.6197,0.6246,0.6314,0.6359,0.633,0.6487,0.6456,0.6514,0.6513,0.6549,0.6546,0.6686,0.6574,0.6574,0.6574,0.6574,0,0.5536,0.5619,0.5681,0.5741,0.5835,0.5874,0.5968,0.6011,0.6075,0.6148,0.6168,0.6236,0.629,0.6367,0.6403,0.6506,0.6528,0.6554,0.6563,0.6554,0.6551,0.6587,0.6583,0.6578,0.6577,0.6576,0.6576,0,0.5619,0.5663,0.5771,0.5852,0.5874,0.5941,0.6012,0.6073,0.6113,0.6204,0.6228,0.6293,0.6384,0.6434,0.655,0.6574,0.6691,0.6695,0.6664,0.6669,0.6725,0.672,0.6895,0.6922,0.679,0.6791,0.6792,0,0.5687,0.5751,0.5838,0.5886,0.5929,0.6006,0.6058,0.61,0.6155,0.6245,0.6296,0.6387,0.6463,0.6608,0.6668,0.6756,0.6765,0.682,0.6779,0.6767,0.6769,0.6766,0.6774,0.6828,0.6829,0.683,0.6831,0,0.5806,0.5824,0.5897,0.5979,0.604,0.6107,0.6173,0.6212,0.6265,0.6326,0.6417,0.6475,0.6592,0.6683,0.6777,0.6825,0.6839,0.6843,0.6862,0.6854,0.6835,0.6849,0.6687,0.684,0.6839,0.6838,0.6838,0.6837,0.5886,0.5944,0.6014,0.6095,0.6149,0.621,0.6272,0.6319,0.6394,0.649,0.651,0.6608,0.6684,0.681,0.686,0.6939,0.6929,0.6956,0.6963,0.697,0.6973,0.6819,0.6956,0.6956,0.6956,0.6956,0.6955,0,0.6008,0.6053,0.6127,0.6218,0.6283,0.6285,0.6359,0.6414,0.6498,0.6566,0.6638,0.6745,0.6834,0.6899,0.6991,0.7042,0.7051,0.7065,0.7064,0.7075,0.6975,0.6951,0.7057,0.7057,0.7057,0.7057,0.7057,0.7057,0.6079,0.6177,0.6204,0.6331,0.6377,0.6469,0.6512,0.657,0.6624,0.674,0.6813,0.6854,0.6922,0.7019,0.7102,0.7119,0.7154,0.7167,0.7186,0.7092,0.7082,0.7072,0.7049,0.7174,0.7174,0.728,0.7281,0.7282]}]]